星链-4753 (STARLINK-4753 )

导读

STARLINK-4753是美国SpaceX公司星链星座的第二代卫星,于2022年9月19日发射,部署在近地轨道。星链项目计划发射数万颗卫星,构建全球覆盖的高速低延迟宽带互联网,为网络欠发达地区提供接入服务。该卫星搭载星链 mini激光通信设备,可实现高速星间链路,支撑实时任务与数据传输,服务全球联网需求。

基本信息
目录编号:
53845
目录名称:
STARLINK-4753
国际标识:
2022-114AD
轨道中心:
EARTH
卫星名称:
星链-4753
卫星全名:
星链-4753 (STARLINK-4753 )
卫星状态:
在轨 (已飞行1367 天)
发射日期:
2022-09-19 UTC
国别 :
美国 (US)
星等 :
--
轨道信息
数据来源 国际轨道数据 AOE轨道数据
星历时间 2026-06-16T17:38:37+0800
23小时前
查看轨道信息
2026-06-15T04:00:00+0800
2天前
查看轨道信息
半长轴 6917.889km 6917.904km
偏心率 0.0001101 0.0001364
轨道倾角 53.160° 53.156°
近地点辐角 82.183° 89.723°
升交点赤经 210.922° 217.976°
平近点角 277.928° 25.993°
近地点 538.99km 538.823km
远地点 540.514km 540.711km
周期 95.438分钟 95.438分钟
每日圈数 15.088373 15.088324
详细信息
固有亮度:
5
最大亮度:
2.5
卫星平台:
Starlink v1.5
覆盖范围:
全球
运营商:
太空探索技术公司
运营商所在国:
美国
制造商(研发单位):
太空探索技术公司
制造商所在国:
美国
使用方式:
暂无
卫星简介
星链(Starlink)计划是由太空探索技术公司(SpaceX)提出的一个巨型低轨卫星互联网星座项目,计划在2019年至2024年间在太空搭建由约1.2万颗卫星组成的“星链”网络,其中1584颗将部署在地球上空550千米处的近地轨道,并从2020年开始工作。该卫星仍在工作。
2D轨道图
3D轨道图
轨道高度分析图
轨道倾角分析图
轨道综合分析图
查看轨道综合分析图